PAS623 WARR-WALL

Flight info

Callsign PAS623
Flight time 1h 14m
Altitude 33000
Route RAMPY T13 IKAPI T11 KAYAN
Aircraft A320/M-SDE3FGHIRWY/LB1

Departure

Time 2026-04-25 04:15
Airport Juanda International Airport (WARR)

Arrival

Time 2026-04-25 05:29
Airport Sultan Aji Muhammad Sulaiman Sepinggan International Airport (WALL)
Time Latitude Longitude Altitude Speed Heading
2026-04-25 03:50 -7.37567 112.79347 10 ft 0 kts
2026-04-25 04:05 -7.37568 112.79347 9 ft 2 kts
2026-04-25 04:05 -7.37593 112.79343 10 ft 4 kts
2026-04-25 04:05 -7.37619 112.79339 9 ft 2 kts
2026-04-25 04:05 -7.37641 112.79337 9 ft 4 kts 345°
2026-04-25 04:06 -7.37660 112.79350 9 ft 4 kts 289°
2026-04-25 04:06 -7.37663 112.79358 9 ft 0 kts 279°
2026-04-25 04:08 -7.37661 112.79345 9 ft 8 kts 279°
2026-04-25 04:09 -7.37653 112.79294 9 ft 7 kts 279°
2026-04-25 04:09 -7.37645 112.79248 9 ft 7 kts 279°
2026-04-25 04:09 -7.37634 112.79181 9 ft 9 kts 279°
2026-04-25 04:09 -7.37628 112.79121 9 ft 8 kts 257°
2026-04-25 04:10 -7.37683 112.79094 9 ft 13 kts 190°
2026-04-25 04:10 -7.37766 112.79081 11 ft 11 kts 189°
2026-04-25 04:10 -7.37851 112.79053 11 ft 13 kts 228°
2026-04-25 04:10 -7.37851 112.78947 9 ft 18 kts 278°
2026-04-25 04:11 -7.37805 112.78668 9 ft 22 kts 279°
2026-04-25 04:11 -7.37780 112.78512 9 ft 23 kts 279°
2026-04-25 04:11 -7.37754 112.78354 9 ft 23 kts 279°
2026-04-25 04:12 -7.37727 112.78189 9 ft 24 kts 279°
2026-04-25 04:12 -7.37700 112.78019 9 ft 25 kts 279°
2026-04-25 04:12 -7.37671 112.77841 9 ft 26 kts 279°
2026-04-25 04:12 -7.37646 112.77681 9 ft 22 kts 279°
2026-04-25 04:13 -7.37622 112.77535 9 ft 20 kts 279°
2026-04-25 04:13 -7.37608 112.77434 8 ft 13 kts 267°
2026-04-25 04:13 -7.37661 112.77380 9 ft 11 kts 192°
2026-04-25 04:13 -7.37732 112.77371 8 ft 9 kts 187°
2026-04-25 04:14 -7.37772 112.77388 9 ft 6 kts 113°
2026-04-25 04:14 -7.37781 112.77445 10 ft 23 kts 99°
2026-04-25 04:14 -7.37849 112.77865 10 ft 94 kts 99°
2026-04-25 04:14 -7.37985 112.78712 10 ft 148 kts 99°
2026-04-25 04:15 -7.38172 112.79849 295 ft 168 kts 99°
2026-04-25 04:15 -7.38364 112.81007 1013 ft 167 kts 98°
2026-04-25 04:15 -7.38552 112.82170 1559 ft 174 kts 98°
2026-04-25 04:15 -7.38758 112.83456 1807 ft 197 kts 98°
2026-04-25 04:16 -7.38988 112.84905 2049 ft 222 kts 99°
2026-04-25 04:16 -7.39248 112.86523 2352 ft 246 kts 99°
2026-04-25 04:16 -7.39532 112.88280 2890 ft 259 kts 99°
2026-04-25 04:16 -7.39824 112.90094 3624 ft 265 kts 99°
2026-04-25 04:17 -7.39884 112.91951 4358 ft 269 kts 78°
2026-04-25 04:17 -7.39122 112.93666 5124 ft 272 kts 54°
2026-04-25 04:17 -7.37985 112.95198 5900 ft 274 kts 53°
2026-04-25 04:17 -7.36833 112.96734 6652 ft 277 kts 53°
2026-04-25 04:18 -7.35661 112.98289 7383 ft 279 kts 53°
2026-04-25 04:18 -7.34482 112.99860 8087 ft 283 kts 53°
2026-04-25 04:18 -7.33295 113.01450 8801 ft 285 kts 53°
2026-04-25 04:18 -7.32094 113.03066 9477 ft 289 kts 53°
2026-04-25 04:19 -7.30884 113.04698 10132 ft 292 kts 53°
2026-04-25 04:19 -7.29635 113.06378 10494 ft 306 kts 53°
2026-04-25 04:19 -7.28404 113.08025 11674 ft 286 kts 52°
2026-04-25 04:19 -7.27024 113.09532 12029 ft 303 kts 41°
2026-04-25 04:20 -7.25234 113.10778 12175 ft 324 kts 28°
2026-04-25 04:20 -7.23073 113.11640 12345 ft 343 kts 15°
2026-04-25 04:20 -7.20714 113.12177 12809 ft 350 kts 14°
2026-04-25 04:20 -7.18329 113.12729 13370 ft 354 kts 14°
2026-04-25 04:21 -7.15945 113.13295 13947 ft 357 kts 14°
2026-04-25 04:21 -7.13518 113.13874 14497 ft 360 kts 14°
2026-04-25 04:21 -7.11067 113.14457 15070 ft 363 kts 14°
2026-04-25 04:21 -7.08596 113.15042 15596 ft 366 kts 14°
2026-04-25 04:22 -7.06104 113.15631 16116 ft 369 kts 14°
2026-04-25 04:22 -7.03592 113.16222 16625 ft 372 kts 14°
2026-04-25 04:22 -7.01059 113.16816 17128 ft 375 kts 14°
2026-04-25 04:22 -6.98510 113.17414 17629 ft 378 kts 14°
2026-04-25 04:23 -6.95941 113.18015 18124 ft 380 kts 14°
2026-04-25 04:23 -6.93354 113.18619 18613 ft 383 kts 14°
2026-04-25 04:23 -6.90748 113.19226 19087 ft 386 kts 14°
2026-04-25 04:23 -6.88118 113.19840 19551 ft 389 kts 14°
2026-04-25 04:24 -6.85480 113.20458 19995 ft 391 kts 14°
2026-04-25 04:24 -6.82818 113.21084 20422 ft 394 kts 14°
2026-04-25 04:24 -6.80134 113.21715 20869 ft 397 kts 14°
2026-04-25 04:24 -6.77438 113.22342 21272 ft 400 kts 14°
2026-04-25 04:25 -6.74716 113.22975 21677 ft 402 kts 14°
2026-04-25 04:25 -6.71985 113.23616 22080 ft 405 kts 14°
2026-04-25 04:25 -6.69227 113.24264 22471 ft 408 kts 14°
2026-04-25 04:25 -6.66456 113.24913 22857 ft 410 kts 14°
2026-04-25 04:26 -6.63666 113.25565 23227 ft 413 kts 14°
2026-04-25 04:26 -6.60866 113.26222 23597 ft 415 kts 14°
2026-04-25 04:26 -6.58040 113.26886 23948 ft 417 kts 14°
2026-04-25 04:26 -6.55205 113.27549 24294 ft 420 kts 14°
2026-04-25 04:27 -6.52356 113.28216 24629 ft 422 kts 14°
2026-04-25 04:27 -6.49489 113.28886 24954 ft 424 kts 14°
2026-04-25 04:27 -6.46603 113.29560 25264 ft 426 kts 14°
2026-04-25 04:27 -6.43712 113.30236 25573 ft 428 kts 14°
2026-04-25 04:28 -6.40802 113.30917 25869 ft 430 kts 14°
2026-04-25 04:28 -6.37880 113.31598 26155 ft 432 kts 14°
2026-04-25 04:28 -6.34977 113.32276 26437 ft 434 kts 14°
2026-04-25 04:28 -6.31986 113.32974 26720 ft 436 kts 14°
2026-04-25 04:29 -6.29065 113.33656 26979 ft 438 kts 14°
2026-04-25 04:29 -6.26062 113.34387 27240 ft 439 kts 18°
2026-04-25 04:29 -6.23204 113.35484 27472 ft 440 kts 26°
2026-04-25 04:29 -6.20450 113.36829 27714 ft 442 kts 27°
2026-04-25 04:30 -6.17717 113.38169 27963 ft 443 kts 27°
2026-04-25 04:30 -6.14905 113.39551 28206 ft 445 kts 27°
2026-04-25 04:30 -6.12151 113.40900 28446 ft 447 kts 27°
2026-04-25 04:30 -6.09351 113.42271 28682 ft 448 kts 27°
2026-04-25 04:31 -6.06544 113.43641 28917 ft 450 kts 27°
2026-04-25 04:31 -6.03718 113.45018 29148 ft 451 kts 27°
2026-04-25 04:31 -6.00890 113.46394 29370 ft 453 kts 27°
2026-04-25 04:31 -5.98052 113.47778 29587 ft 454 kts 27°
2026-04-25 04:32 -5.95201 113.49171 29795 ft 456 kts 27°
2026-04-25 04:32 -5.92348 113.50564 30011 ft 457 kts 27°
2026-04-25 04:32 -5.89479 113.51964 30209 ft 459 kts 27°
2026-04-25 04:32 -5.86603 113.53366 30421 ft 460 kts 27°
2026-04-25 04:33 -5.83724 113.54769 30633 ft 460 kts 27°
2026-04-25 04:33 -5.80842 113.56176 30842 ft 461 kts 27°
2026-04-25 04:33 -5.77960 113.57581 31124 ft 460 kts 27°
2026-04-25 04:33 -5.75088 113.58982 31454 ft 458 kts 27°
2026-04-25 04:34 -5.72229 113.60378 31779 ft 455 kts 27°
2026-04-25 04:34 -5.69391 113.61762 32097 ft 453 kts 27°
2026-04-25 04:34 -5.66557 113.63144 32420 ft 451 kts 27°
2026-04-25 04:34 -5.63745 113.64518 32714 ft 449 kts 27°
2026-04-25 04:35 -5.60942 113.65883 32869 ft 446 kts 27°
2026-04-25 04:35 -5.56383 113.68101 32885 ft 433 kts 27°
2026-04-25 04:36 -5.50985 113.70736 32885 ft 431 kts 27°
2026-04-25 04:36 -5.45594 113.73357 32882 ft 430 kts 27°
2026-04-25 04:37 -5.40203 113.75978 32888 ft 430 kts 27°
2026-04-25 04:37 -5.34816 113.78604 32884 ft 430 kts 27°
2026-04-25 04:38 -5.29441 113.81228 32880 ft 430 kts 27°
2026-04-25 04:38 -5.24053 113.83848 32878 ft 430 kts 27°
2026-04-25 04:39 -5.18670 113.86462 32875 ft 430 kts 27°
2026-04-25 04:39 -5.13293 113.89082 32873 ft 430 kts 27°
2026-04-25 04:40 -5.07913 113.91704 32870 ft 430 kts 27°
2026-04-25 04:40 -5.02530 113.94320 32872 ft 430 kts 27°
2026-04-25 04:41 -4.97140 113.96937 32868 ft 430 kts 27°
2026-04-25 04:41 -4.92047 114.00044 32865 ft 429 kts 35°
2026-04-25 04:42 -4.87071 114.03349 32864 ft 428 kts 35°
2026-04-25 04:42 -4.82094 114.06639 32862 ft 429 kts 35°
2026-04-25 04:43 -4.77113 114.09941 32862 ft 429 kts 35°
2026-04-25 04:43 -4.72143 114.13246 32861 ft 429 kts 35°
2026-04-25 04:44 -4.67161 114.16544 32860 ft 429 kts 35°
2026-04-25 04:44 -4.62172 114.19840 32858 ft 429 kts 35°
2026-04-25 04:45 -4.57198 114.23139 32858 ft 429 kts 35°
2026-04-25 04:45 -4.52212 114.26441 32855 ft 429 kts 35°
2026-04-25 04:46 -4.47223 114.29747 32856 ft 430 kts 35°
2026-04-25 04:46 -4.42269 114.33034 32856 ft 429 kts 35°
2026-04-25 04:47 -4.37289 114.36324 32851 ft 429 kts 35°
2026-04-25 04:47 -4.32310 114.39617 32853 ft 429 kts 35°
2026-04-25 04:48 -4.27332 114.42916 32858 ft 429 kts 35°
2026-04-25 04:48 -4.22351 114.46211 32858 ft 429 kts 35°
2026-04-25 04:49 -4.17366 114.49504 32853 ft 429 kts 35°
2026-04-25 04:49 -4.12388 114.52793 32853 ft 429 kts 35°
2026-04-25 04:50 -4.07406 114.56089 32856 ft 429 kts 35°
2026-04-25 04:50 -4.02420 114.59380 32850 ft 429 kts 35°
2026-04-25 04:51 -3.97447 114.62671 32848 ft 429 kts 35°
2026-04-25 04:51 -3.92476 114.65962 32834 ft 428 kts 35°
2026-04-25 04:52 -3.87500 114.69252 32827 ft 429 kts 35°
2026-04-25 04:52 -3.82524 114.72535 32830 ft 428 kts 35°
2026-04-25 04:53 -3.77549 114.75814 32825 ft 428 kts 35°
2026-04-25 04:53 -3.72584 114.79091 32824 ft 427 kts 35°
2026-04-25 04:54 -3.67623 114.82369 32826 ft 427 kts 35°
2026-04-25 04:54 -3.62660 114.85646 32825 ft 427 kts 35°
2026-04-25 04:55 -3.57700 114.88921 32821 ft 427 kts 35°
2026-04-25 04:55 -3.52738 114.92202 32823 ft 427 kts 35°
2026-04-25 04:56 -3.47781 114.95476 32823 ft 427 kts 35°
2026-04-25 04:56 -3.42823 114.98750 32825 ft 427 kts 35°
2026-04-25 04:57 -3.37857 115.02019 32825 ft 427 kts 35°
2026-04-25 04:57 -3.32907 115.05288 32824 ft 427 kts 35°
2026-04-25 04:58 -3.27952 115.08559 32825 ft 427 kts 35°
2026-04-25 04:58 -3.22992 115.11825 32826 ft 427 kts 35°
2026-04-25 04:59 -3.18073 115.15063 32823 ft 426 kts 35°
2026-04-25 04:59 -3.13121 115.18327 32825 ft 426 kts 35°
2026-04-25 05:00 -3.08179 115.21599 32824 ft 426 kts 35°
2026-04-25 05:00 -3.03229 115.24864 32824 ft 426 kts 35°
2026-04-25 05:01 -2.98280 115.28127 32824 ft 426 kts 35°
2026-04-25 05:01 -2.93332 115.31382 32823 ft 426 kts 35°
2026-04-25 05:02 -2.88389 115.34640 32823 ft 425 kts 35°
2026-04-25 05:02 -2.83448 115.37901 32823 ft 426 kts 35°
2026-04-25 05:03 -2.78499 115.41157 32822 ft 425 kts 35°
2026-04-25 05:03 -2.73556 115.44396 32824 ft 425 kts 35°
2026-04-25 05:04 -2.68622 115.47658 32823 ft 425 kts 35°
2026-04-25 05:04 -2.63683 115.50926 32824 ft 425 kts 35°
2026-04-25 05:05 -2.58756 115.54169 32647 ft 421 kts 35°
2026-04-25 05:05 -2.56331 115.55759 32312 ft 413 kts 34°
2026-04-25 05:05 -2.53938 115.57330 31816 ft 410 kts 34°
2026-04-25 05:05 -2.51590 115.58873 31336 ft 407 kts 34°
2026-04-25 05:06 -2.49207 115.60444 30840 ft 404 kts 34°
2026-04-25 05:06 -2.46871 115.61985 30379 ft 401 kts 34°
2026-04-25 05:06 -2.44578 115.63495 29909 ft 398 kts 33°
2026-04-25 05:06 -2.42267 115.65014 29448 ft 396 kts 33°
2026-04-25 05:07 -2.39980 115.66517 29002 ft 393 kts 33°
2026-04-25 05:07 -2.37701 115.68015 28558 ft 390 kts 34°
2026-04-25 05:07 -2.35441 115.69503 28126 ft 388 kts 34°
2026-04-25 05:07 -2.33195 115.70983 27693 ft 385 kts 34°
2026-04-25 05:08 -2.30970 115.72450 27262 ft 382 kts 34°
2026-04-25 05:08 -2.28760 115.73908 26837 ft 379 kts 34°
2026-04-25 05:08 -2.26571 115.75351 26394 ft 376 kts 34°
2026-04-25 05:08 -2.24392 115.76791 25969 ft 373 kts 36°
2026-04-25 05:09 -2.22412 115.78429 25522 ft 369 kts 47°
2026-04-25 05:09 -2.20670 115.80304 25064 ft 367 kts 49°
2026-04-25 05:09 -2.18947 115.82169 24580 ft 365 kts 49°
2026-04-25 05:09 -2.17225 115.84033 24103 ft 365 kts 49°
2026-04-25 05:10 -2.15502 115.85898 23626 ft 364 kts 49°
2026-04-25 05:10 -2.13782 115.87759 23140 ft 363 kts 49°
2026-04-25 05:10 -2.12076 115.89610 22670 ft 363 kts 49°
2026-04-25 05:10 -2.10363 115.91471 22176 ft 363 kts 49°
2026-04-25 05:11 -2.08658 115.93327 21695 ft 362 kts 49°
2026-04-25 05:11 -2.06954 115.95179 21221 ft 362 kts 49°
2026-04-25 05:11 -2.05251 115.97028 20744 ft 361 kts 49°
2026-04-25 05:12 -2.01855 116.00714 19802 ft 360 kts 49°
2026-04-25 05:12 -2.00168 116.02552 19329 ft 358 kts 49°
2026-04-25 05:12 -1.98485 116.04384 18877 ft 357 kts 49°
2026-04-25 05:12 -1.96803 116.06211 18413 ft 356 kts 49°
2026-04-25 05:13 -1.95126 116.08031 17953 ft 355 kts 49°
2026-04-25 05:13 -1.93458 116.09840 17495 ft 354 kts 49°
2026-04-25 05:13 -1.91814 116.11621 17054 ft 352 kts 49°
2026-04-25 05:13 -1.90137 116.13439 16657 ft 349 kts 49°
2026-04-25 05:14 -1.88494 116.15225 16231 ft 347 kts 49°
2026-04-25 05:14 -1.86884 116.16974 15783 ft 346 kts 49°
2026-04-25 05:14 -1.85268 116.18727 15367 ft 344 kts 49°
2026-04-25 05:15 -1.82049 116.22227 14590 ft 339 kts 49°
2026-04-25 05:15 -1.80474 116.23945 14246 ft 335 kts 49°
2026-04-25 05:15 -1.78898 116.25662 13805 ft 334 kts 49°
2026-04-25 05:15 -1.77332 116.27364 13394 ft 332 kts 49°
2026-04-25 05:16 -1.75777 116.29054 12988 ft 330 kts 48°
2026-04-25 05:16 -1.74230 116.30733 12566 ft 326 kts 48°
2026-04-25 05:16 -1.72707 116.32388 11938 ft 319 kts 48°
2026-04-25 05:16 -1.71237 116.33982 11507 ft 306 kts 48°
2026-04-25 05:17 -1.69801 116.35539 11109 ft 304 kts 48°
2026-04-25 05:17 -1.68380 116.37079 10850 ft 297 kts 48°
2026-04-25 05:17 -1.66998 116.38588 10455 ft 292 kts 48°
2026-04-25 05:17 -1.65637 116.40083 10043 ft 291 kts 49°
2026-04-25 05:18 -1.64277 116.41578 9648 ft 289 kts 48°
2026-04-25 05:18 -1.62933 116.43054 9247 ft 288 kts 48°
2026-04-25 05:18 -1.61588 116.44529 8913 ft 285 kts 48°
2026-04-25 05:18 -1.60253 116.45993 8498 ft 284 kts 48°
2026-04-25 05:19 -1.58925 116.47448 8085 ft 284 kts 48°
2026-04-25 05:19 -1.57606 116.48895 7707 ft 281 kts 48°
2026-04-25 05:19 -1.56294 116.50336 7325 ft 279 kts 48°
2026-04-25 05:19 -1.54990 116.51769 6889 ft 278 kts 48°
2026-04-25 05:20 -1.53696 116.53189 6470 ft 276 kts 47°
2026-04-25 05:20 -1.52465 116.54653 6077 ft 275 kts 57°
2026-04-25 05:20 -1.51644 116.56351 5839 ft 270 kts 69°
2026-04-25 05:20 -1.50976 116.58107 5641 ft 269 kts 68°
2026-04-25 05:21 -1.50309 116.59849 5445 ft 268 kts 68°
2026-04-25 05:21 -1.49642 116.61586 5256 ft 267 kts 68°
2026-04-25 05:21 -1.49200 116.62734 5133 ft 267 kts 68°
2026-04-25 05:21 -1.48533 116.64466 4944 ft 267 kts 68°
2026-04-25 05:22 -1.47872 116.66197 4746 ft 266 kts 68°
2026-04-25 05:22 -1.47213 116.67920 4557 ft 266 kts 68°
2026-04-25 05:22 -1.46553 116.69645 4356 ft 265 kts 68°
2026-04-25 05:22 -1.45896 116.71361 4187 ft 264 kts 68°
2026-04-25 05:23 -1.45049 116.72968 3986 ft 261 kts 47°
2026-04-25 05:23 -1.43562 116.73970 3799 ft 261 kts 18°
2026-04-25 05:23 -1.41770 116.74078 3575 ft 263 kts 348°
2026-04-25 05:23 -1.40056 116.73420 3379 ft 263 kts 339°
2026-04-25 05:24 -1.38407 116.72716 3172 ft 253 kts 339°
2026-04-25 05:24 -1.36792 116.72167 2969 ft 240 kts 357°
2026-04-25 05:24 -1.35222 116.72450 2794 ft 227 kts 29°
2026-04-25 05:24 -1.34113 116.73501 2639 ft 217 kts 59°
2026-04-25 05:25 -1.33417 116.74810 2484 ft 210 kts 62°
2026-04-25 05:25 -1.32753 116.76083 2329 ft 203 kts 62°
2026-04-25 05:25 -1.32122 116.77291 2212 ft 190 kts 62°
2026-04-25 05:25 -1.31538 116.78409 2049 ft 172 kts 62°
2026-04-25 05:26 -1.31039 116.79432 1873 ft 158 kts 66°
2026-04-25 05:26 -1.30627 116.80399 1687 ft 147 kts 67°
2026-04-25 05:26 -1.30239 116.81328 1491 ft 143 kts 68°
2026-04-25 05:26 -1.29865 116.82223 1311 ft 140 kts 68°
2026-04-25 05:27 -1.29487 116.83128 1124 ft 139 kts 69°
2026-04-25 05:27 -1.29112 116.84018 947 ft 138 kts 68°
2026-04-25 05:27 -1.28736 116.84909 772 ft 139 kts 68°
2026-04-25 05:27 -1.28367 116.85787 593 ft 139 kts 68°
2026-04-25 05:28 -1.27990 116.86682 412 ft 140 kts 68°
2026-04-25 05:28 -1.27611 116.87590 282 ft 140 kts 69°
2026-04-25 05:28 -1.27245 116.88479 74 ft 140 kts 69°
2026-04-25 05:28 -1.26896 116.89326 22 ft 113 kts 64°
2026-04-25 05:29 -1.26654 116.89886 22 ft 63 kts 67°
2026-04-25 05:29 -1.26557 116.90106 20 ft 15 kts 51°
2026-04-25 05:29 -1.26492 116.90115 22 ft 9 kts 340°
2026-04-25 05:29 -1.26441 116.90093 22 ft 7 kts 336°
2026-04-25 05:30 -1.26400 116.90075 21 ft 8 kts 337°
2026-04-25 05:30 -1.26336 116.90044 22 ft 9 kts 318°
2026-04-25 05:30 -1.26335 116.89988 21 ft 8 kts 249°
2026-04-25 05:30 -1.26355 116.89940 21 ft 7 kts 247°
2026-04-25 05:31 -1.26373 116.89898 21 ft 6 kts 247°
2026-04-25 05:31 -1.26360 116.89871 21 ft 4 kts 322°
2026-04-25 05:31 -1.26337 116.89860 22 ft 3 kts 334°
2026-04-25 05:31 -1.26321 116.89852 21 ft 2 kts 335°
2026-04-25 05:32 -1.26310 116.89848 21 ft 1 kts 335°
2026-04-25 05:47 -1.26312 116.89848 21 ft 0 kts 335°